ASGARDIA 1 (43049 NORAD) Tracking and Keplerian Element Data

This shows tracking and keplerian element data for the satellite.

Feedback or suggestion? Click here.




ElementValue
Catalog43049
NameASGARDIA 1
Epoch Orbit26823
Epoch Day248.13320439
Epoch Year2022
RAAN351.2748
Inclination51.622
Eccentricity0.001119
Argument of Perigee337.7655
Mean Anonmoly22.2871
Mean Motion16.06755908
Decay Rate0.01033462
L11 43049U 17071N 22248.13320439 .01033462 60287-3 13121-2 0 9994
L22 43049 51.6220 351.2748 0011190 337.7655 22.2871 16.06755908268236



Live tracking and technical data element details for ASGARDIA 1 (NORAD 43049). ASGARDIA 1 can be tracked NOW for your location showing map with azimuth and elevation plus other details from your city location.







IsCatalogInMostPopularTable: catalog: 43049, numindb: 655
Update: records affected: 1



GetName: 43049 ASGARDIA 1

Hit Count: updated at: Tue, 18 Jun 2024 00:01:50 GMT